Weather History for KDYB - November, 2012

Change the Weather History Date:

Saturday, November 24, 2012

  Actual Average (KCHS) Record (KCHS)
Temperature  
Mean Temperature 46 °F 56 °F  
Max Temperature 60 °F 68 °F 82 °F (1973)
Min Temperature 33 °F 45 °F 21 °F (1970)
Degree Days  
Heating Degree Days 18 9  
Month to date heating degree days 162  
Since 1 July heating degree days 231  
Cooling Degree Days 0 1  
Month to date cooling degree days 29  
Year to date cooling degree days 2293  
Moisture  
Dew Point 38 °F    
Average Humidity 72    
Maximum Humidity 100    
Minimum Humidity 36    
Precipitation  
Precipitation 0.00 in 0.07 in 0.83 in (1971)
Month to date precipitation 1.94  
Year to date precipitation 47.43  
Sea Level Pressure  
Sea Level Pressure 30.02 in    
Wind  
Wind Speed 3 mph (WNW)    
Max Wind Speed 10 mph    
Max Gust Speed -    
Visibility 10 miles    
Events      
T = Trace of Precipitation, MM = Missing Value Source: NWS Daily Summary

Daily Weather History Graph

Daily Weather History Graph

Search for Another Location

Airport or City:

Trip Planner

Search our weather history database for the weather conditions in past years. The results will help you decide how hot, cold, wet, or windy it might be!

Date:

Astronomy

Nov. 24, 2012 Rise Set
Actual Time 7:00 AM EST 5:15 PM EST
Civil Twilight 6:33 AM EST 5:41 PM EST
Nautical Twilight 6:03 AM EST 6:12 PM EST
Astronomical Twilight 5:33 AM EST 6:41 PM EST
Moon 2:51 PM EST (11/24) 3:24 AM EST (11/24)
Length of Visible Light 11h 08m
Length of Day
10h 14m
Waxing Gibbous, 87% of the Moon is Illuminated
Nov 24
Waxing Gibbous
Nov 28
Full
Dec 6
Last Quarter
Dec 13
New
Dec 20
First Quarter

Hourly Weather History & Observations

Time (EST) Temp. Windchill Dew Point Humidity Pressure Visibility Wind Dir Wind Speed Gust Speed Precip Events Conditions
12:15 AM 46.4 °F 44.3 °F 44.6 °F 93% 29.95 in 10.0 mi SSW 4.6 mph - N/A   Clear
12:35 AM 46.4 °F 45.2 °F 44.6 °F 93% 29.94 in 10.0 mi SSW 3.5 mph - N/A   Clear
12:55 AM 46.4 °F - 44.6 °F 93% 29.94 in 10.0 mi Calm Calm - N/A   Clear
1:15 AM 44.6 °F - 44.6 °F 100% 29.94 in 10.0 mi Calm Calm - N/A   Clear
1:55 AM 44.6 °F 42.2 °F 44.6 °F 100% 29.94 in 10.0 mi West 4.6 mph - N/A   Clear
2:55 AM 51.8 °F - 44.6 °F 76% 29.96 in 10.0 mi West 3.5 mph - N/A   Clear
3:15 AM 48.2 °F - 44.6 °F 87% 29.96 in 10.0 mi West 3.5 mph - N/A   Clear
3:35 AM 46.4 °F 44.3 °F 44.6 °F 93% 29.96 in 10.0 mi WNW 4.6 mph - N/A   Scattered Clouds
3:55 AM 50.0 °F - 44.6 °F 82% 29.97 in 10.0 mi NW 3.5 mph - N/A   Clear
4:15 AM 50.0 °F - 44.6 °F 82% 29.97 in 10.0 mi WNW 3.5 mph - N/A   Clear
4:35 AM 48.2 °F - 44.6 °F 87% 29.97 in 10.0 mi NW 3.5 mph - N/A   Clear
4:55 AM 42.8 °F - 42.8 °F 100% 29.98 in 10.0 mi Calm Calm - N/A   Clear
5:15 AM 42.8 °F 41.1 °F 42.8 °F 100% 29.99 in 10.0 mi WNW 3.5 mph - N/A   Clear
5:35 AM 41.0 °F 38.0 °F 41.0 °F 100% 30.00 in 10.0 mi WNW 4.6 mph - N/A   Clear
5:55 AM 46.4 °F 45.2 °F 41.0 °F 81% 30.00 in 10.0 mi NW 3.5 mph - N/A   Clear
6:15 AM 41.0 °F - 39.2 °F 93% 30.01 in 10.0 mi Calm Calm - N/A   Clear
6:35 AM 41.0 °F - 41.0 °F 100% 30.02 in 10.0 mi Calm Calm - N/A   Clear
7:15 AM 37.4 °F - 37.4 °F 100% 30.03 in 5.0 mi Calm Calm - N/A   Clear
7:35 AM 39.2 °F - 39.2 °F 100% 30.04 in 7.0 mi Calm Calm - N/A   Clear
7:55 AM 41.0 °F - 41.0 °F 100% 30.04 in 10.0 mi Calm Calm - N/A   Clear
8:15 AM 46.4 °F 45.2 °F 42.8 °F 87% 30.05 in 10.0 mi NW 3.5 mph - N/A   Clear
8:35 AM 48.2 °F - 41.0 °F 76% 30.05 in 10.0 mi NW 4.6 mph - N/A   Clear
8:55 AM 50.0 °F - 39.2 °F 66% 30.05 in 10.0 mi NW 8.1 mph - N/A   Clear
9:15 AM 51.8 °F - 37.4 °F 58% 30.06 in 10.0 mi NW 9.2 mph - N/A   Clear
9:35 AM 51.8 °F - 37.4 °F 58% 30.06 in 10.0 mi NNW 9.2 mph - N/A   Clear
9:55 AM 53.6 °F - 35.6 °F 51% 30.06 in 10.0 mi NW 6.9 mph - N/A   Clear
10:15 AM 53.6 °F - 35.6 °F 51% 30.06 in 10.0 mi NW 4.6 mph - N/A   Clear
10:35 AM 55.4 °F - 33.8 °F 44% 30.06 in 10.0 mi NNE 6.9 mph - N/A   Clear
10:55 AM 55.4 °F - 33.8 °F 44% 30.06 in 10.0 mi NW 6.9 mph - N/A   Clear
11:15 AM 55.4 °F - 33.8 °F 44% 30.05 in 10.0 mi NW 6.9 mph - N/A   Clear
11:35 AM 59.0 °F - 33.8 °F 39% 30.04 in 10.0 mi NW 8.1 mph - N/A   Clear
11:55 AM 59.0 °F - 33.8 °F 39% 30.03 in 10.0 mi NNW 6.9 mph - N/A   Clear
12:15 PM 59.0 °F - 33.8 °F 39% 30.02 in 10.0 mi NW 10.4 mph - N/A   Clear
12:35 PM 59.0 °F - 33.8 °F 39% 30.01 in 10.0 mi NNW 6.9 mph - N/A   Clear
12:55 PM 60.8 °F - 33.8 °F 36% 30.00 in 10.0 mi NNW 9.2 mph - N/A   Clear
1:15 PM 60.8 °F - 33.8 °F 36% 29.99 in 10.0 mi NW 3.5 mph - N/A   Clear
1:35 PM 60.8 °F - 33.8 °F 36% 29.99 in 10.0 mi WNW 8.1 mph - N/A   Clear
1:55 PM 60.8 °F - 33.8 °F 36% 29.98 in 10.0 mi West 4.6 mph - N/A   Clear
2:15 PM 60.8 °F - 33.8 °F 36% 29.97 in 10.0 mi West 6.9 mph - N/A   Clear
2:35 PM 60.8 °F - 33.8 °F 36% 29.97 in 10.0 mi WNW 6.9 mph - N/A   Clear
2:55 PM 60.8 °F - 33.8 °F 36% 29.98 in 10.0 mi WNW 9.2 mph - N/A   Clear
3:15 PM 60.8 °F - 33.8 °F 36% 29.98 in 10.0 mi WSW 8.1 mph - N/A   Clear
3:35 PM 60.8 °F - 35.6 °F 39% 29.98 in 10.0 mi WNW 6.9 mph - N/A   Clear
3:55 PM 60.8 °F - 33.8 °F 36% 29.98 in 10.0 mi NW 5.8 mph - N/A   Clear
4:15 PM 60.8 °F - 35.6 °F 39% 29.99 in 10.0 mi WNW 4.6 mph - N/A   Clear
4:35 PM 59.0 °F - 33.8 °F 39% 30.00 in 10.0 mi WNW 3.5 mph - N/A   Clear
4:55 PM 57.2 °F - 33.8 °F 41% 30.01 in 10.0 mi Calm Calm - N/A   Clear
5:15 PM 53.6 °F - 37.4 °F 54% 30.01 in 10.0 mi Calm Calm - N/A   Clear
5:55 PM 48.2 °F - 37.4 °F 66% 30.03 in 10.0 mi Calm Calm - N/A   Clear
6:15 PM 46.4 °F - 37.4 °F 71% 30.03 in 10.0 mi Calm Calm - N/A   Clear
6:35 PM 44.6 °F - 37.4 °F 76% 30.04 in 10.0 mi Calm Calm - N/A   Clear
6:55 PM 42.8 °F - 37.4 °F 81% 30.05 in 10.0 mi Calm Calm - N/A   Clear
7:15 PM 42.8 °F - 37.4 °F 81% 30.06 in 10.0 mi Calm Calm - N/A   Clear
7:35 PM 42.8 °F - 37.4 °F 81% 30.06 in 10.0 mi Calm Calm - N/A   Clear
7:55 PM 41.0 °F - 37.4 °F 87% 30.07 in 10.0 mi Calm Calm - N/A   Clear
8:15 PM 41.0 °F - 37.4 °F 87% 30.07 in 10.0 mi Calm Calm - N/A   Clear
8:35 PM 39.2 °F - 37.4 °F 93% 30.08 in 10.0 mi Calm Calm - N/A   Clear
8:55 PM 37.4 °F - 37.4 °F 100% 30.08 in 10.0 mi Calm Calm - N/A   Clear
9:15 PM 37.4 °F - 37.4 °F 100% 30.09 in 10.0 mi Calm Calm - N/A   Clear
9:35 PM 37.4 °F - 35.6 °F 93% 30.09 in 10.0 mi Calm Calm - N/A   Clear
9:55 PM 37.4 °F - 37.4 °F 100% 30.10 in 10.0 mi Calm Calm - N/A   Clear
10:15 PM 35.6 °F - 35.6 °F 100% 30.10 in 10.0 mi Calm Calm - N/A   Clear
10:55 PM 35.6 °F - 35.6 °F 100% 30.11 in 10.0 mi Calm Calm - N/A   Clear
11:15 PM 33.8 °F - 33.8 °F 100% 30.11 in 10.0 mi Calm Calm - N/A   Clear
11:35 PM 35.6 °F - 35.6 °F 100% 30.11 in 7.0 mi Calm Calm - N/A   Clear
11:55 PM 33.8 °F - 33.8 °F 100% 30.10 in 10.0 mi Calm Calm - N/A   Clear